This demonstration page uses our WeatherBlox Daily Observations layout. Learn more.

Left ArrowRight Arrow

Hourly Observations for October 1, 2022

Temp ( °F °C ) Dew Point ( °F °C ) Humidity (%) Winds ( mph kmh ) Pressure ( in mb ) Visibility ( mi km ) Precip ( " mm )
12:52 am 00:52 Clear 55 12.8 43 6.1 64 64 E 7 11 30.06 1018 10 16 0.00 0.00
1:52 am 01:52 Clear 51 10.6 41 5 68 68 Calm 30.07 1018 10 16 0.00 0.00
2:52 am 02:52 Clear 49 9.4 41 5 74 74 Calm 30.07 1018 10 16 0.00 0.00
3:52 am 03:52 Clear 45 7.2 40 4.4 82 82 SE 3 6 30.06 1018 10 16 0.00 0.00
4:52 am 04:52 Clear 45 7.2 40 4.4 82 82 Calm 30.08 1019 10 16 0.00 0.00
5:52 am 05:52 Clear 45 7.2 40 4.4 82 82 Calm 30.10 1019 10 16 0.00 0.00
6:52 am 06:52 Clear 45 7.2 40 4.4 82 82 SSE 3 6 30.12 1020 10 16 0.00 0.00
7:52 am 07:52 Sunny 46 7.8 42 5.6 86 86 Calm 30.14 1021 10 16 0.00 0.00
8:52 am 08:52 Sunny 57 13.9 45 7.2 64 64 Calm 30.15 1021 10 16 0.00 0.00
9:52 am 09:52 Sunny 65 18.3 42 5.6 43 43 ESE 7 11 30.16 1021 10 16 0.00 0.00
10:52 am 10:52 Sunny 68 20 42 5.6 39 39 E 6 9 30.16 1021 10 16 0.00 0.00
11:52 am 11:52 Sunny 72 22.2 40 4.4 31 31 N 7 11 30.15 1021 10 16 0.00 0.00
12:52 pm 12:52 Sunny 74 23.3 37 2.8 26 26 VRB 7 11 30.13 1020 10 16 0.00 0.00
1:52 pm 13:52 Sunny 75 23.9 36 2.2 24 24 VRB 5 7 30.12 1020 10 16 0.00 0.00
2:52 pm 14:52 Sunny 78 25.6 36 2.2 22 22 VRB 5 7 30.09 1019 10 16 0.00 0.00
3:52 pm 15:52 Sunny 79 26.1 35 1.7 20 20 NE 10 17 30.09 1019 10 16 0.00 0.00
4:52 pm 16:52 Sunny 78 25.6 32 0 19 19 NE 10 17 30.09 1019 10 16 0.00 0.00
5:52 pm 17:52 Sunny 75 23.9 38 3.3 26 26 NE 15 24 30.10 1019 10 16 0.00 0.00
6:52 pm 18:52 Sunny 70 21.1 37 2.8 30 30 ENE 10 17 30.11 1020 10 16 0.00 0.00
7:52 pm 19:52 Clear 66 18.9 39 3.9 37 37 ENE 7 11 30.12 1020 10 16 0.00 0.00
8:52 pm 20:52 Clear 58 14.4 40 4.4 51 51 Calm 30.14 1021 10 16 0.00 0.00
9:52 pm 21:52 Clear 55 12.8 41 5 59 59 Calm 30.15 1021 10 16 0.00 0.00
10:52 pm 22:52 Clear 53 11.7 42 5.6 66 66 Calm 30.15 1021 10 16 0.00 0.00
11:52 pm 23:52 Clear 53 11.7 41 5 63 63 Calm 30.16 1021 10 16 0.00 0.00

Powered by AerisWeather